AXIOM-3

Last updated on Fri Feb 09 2024 00:02:03 GMT+0000 (Coordinated Universal Time)

1 58815U 24014A 24039.81692477 .00257647 11138-4 36798-3 0 9995 2 58815 51.6377 236.1548 0141545 54.2065 67.9736 15.88551118 3249

Satellite not in orbit